TimeGMT,TemperatureF,Dew PointF,Humidity,Sea Level PressureIn,VisibilityMPH,Wind Direction,Wind SpeedMPH,Gust SpeedMPH,PrecipitationIn,Events,Conditions,WindDirDegrees,DateUTC
12:50 AM,30.2,26.6,86,30.06,6.2,North,5.8,-,N/A,,Partly Cloudy,10,2012-11-29 00:50:00
1:50 AM,30.2,24.8,80,30.06,6.2,North,5.8,-,N/A,,Partly Cloudy,360,2012-11-29 01:50:00
2:50 AM,31,25,72,30.06,25,North,6.9,,,,Scattered Clouds,10,2012-11-29 02:50:00
2:50 AM,30.2,24.8,80,30.04,6.2,North,6.9,-,N/A,,Partly Cloudy,10,2012-11-29 02:50:00
3:50 AM,30.2,24.8,80,30.04,6.2,North,5.8,-,N/A,,Partly Cloudy,10,2012-11-29 03:50:00
4:50 AM,30.2,26.6,86,30.04,6.2,North,6.9,-,N/A,,Partly Cloudy,10,2012-11-29 04:50:00
5:20 AM,30.2,24.8,80,30.01,6.2,North,6.9,-,N/A,,Partly Cloudy,10,2012-11-29 05:20:00
5:50 AM,30,26,77,30.03,25,North,5.8,,,,Scattered Clouds,0,2012-11-29 05:50:00
5:50 AM,30.2,24.8,80,30.01,6.2,North,5.8,-,N/A,,Partly Cloudy,360,2012-11-29 05:50:00
6:20 AM,30.2,26.6,86,30.01,6.2,North,4.6,-,N/A,,Partly Cloudy,360,2012-11-29 06:20:00
6:50 AM,30.2,26.6,86,30.01,6.2,North,5.8,-,N/A,,Partly Cloudy,360,2012-11-29 06:50:00
7:20 AM,30.2,26.6,86,30.01,6.2,North,5.8,-,N/A,,Partly Cloudy,360,2012-11-29 07:20:00
7:50 AM,30.2,26.6,86,30.01,6.2,North,5.8,-,N/A,,Partly Cloudy,350,2012-11-29 07:50:00
8:20 AM,30.2,26.6,86,30.01,6.2,North,5.8,-,N/A,,Partly Cloudy,10,2012-11-29 08:20:00
8:50 AM,31,26,76,30.01,31,North,6.9,,,,Scattered Clouds,10,2012-11-29 08:50:00
8:50 AM,30.2,26.6,86,29.98,6.2,North,6.9,-,N/A,,Partly Cloudy,10,2012-11-29 08:50:00
9:20 AM,33.8,28.4,81,29.98,6.2,North,4.6,-,N/A,,Partly Cloudy,360,2012-11-29 09:20:00
9:50 AM,33.8,28.4,81,29.98,6.2,North,4.6,-,N/A,,Partly Cloudy,360,2012-11-29 09:50:00
10:20 AM,37.4,30.2,75,29.98,6.2,North,3.5,-,N/A,,Partly Cloudy,10,2012-11-29 10:20:00
10:50 AM,39.2,32.0,75,29.98,6.2,Variable,3.5,-,N/A,,Partly Cloudy,0,2012-11-29 10:50:00
11:20 AM,39.2,32.0,75,29.95,6.2,North,2.3,-,N/A,,Partly Cloudy,360,2012-11-29 11:20:00
11:50 AM,41,32,61,29.96,31,North,2.3,,,,Scattered Clouds,350,2012-11-29 11:50:00
11:50 AM,41.0,32.0,70,29.95,6.2,North,2.3,-,N/A,,Partly Cloudy,350,2012-11-29 11:50:00
12:20 PM,41.0,35.6,81,29.95,6.2,NNE,2.3,-,N/A,,Partly Cloudy,20,2012-11-29 12:20:00
12:50 PM,41.0,35.6,81,29.92,6.2,NE,2.3,-,N/A,,Partly Cloudy,50,2012-11-29 12:50:00
1:20 PM,42.8,32.0,66,29.92,6.2,ENE,1.2,-,N/A,,Scattered Clouds,70,2012-11-29 13:20:00
1:50 PM,41.0,35.6,81,29.92,6.2,Variable,3.5,-,N/A,Rain,Light Rain,0,2012-11-29 13:50:00
2:20 PM,41.0,35.6,81,29.89,6.2,NNE,3.5,-,N/A,,Mostly Cloudy,30,2012-11-29 14:20:00
2:50 PM,41.0,37.4,87,29.89,6.2,Variable,3.5,-,N/A,,Mostly Cloudy,0,2012-11-29 14:50:00
3:20 PM,39.2,37.4,93,29.89,6.2,NE,2.3,-,N/A,,Scattered Clouds,40,2012-11-29 15:20:00
3:50 PM,39.2,35.6,87,29.89,6.2,NE,2.3,-,N/A,,Scattered Clouds,50,2012-11-29 15:50:00
4:20 PM,39.2,37.4,93,29.89,6.2,Variable,1.2,-,N/A,,Scattered Clouds,0,2012-11-29 16:20:00
4:50 PM,39.2,35.6,87,29.89,6.2,NE,4.6,-,N/A,,Scattered Clouds,40,2012-11-29 16:50:00
5:20 PM,39.2,37.4,93,29.89,6.2,NNE,5.8,-,N/A,,Mostly Cloudy,30,2012-11-29 17:20:00
5:50 PM,40,37,86,29.88,19,NNE,5.8,,,,Partly Cloudy,20,2012-11-29 17:50:00
5:50 PM,39.2,37.4,93,29.86,6.2,NNE,5.8,-,N/A,,Mostly Cloudy,20,2012-11-29 17:50:00
6:20 PM,41.0,37.4,87,29.86,6.2,Variable,2.3,-,N/A,,Mostly Cloudy,0,2012-11-29 18:20:00
6:50 PM,41.0,37.4,87,29.86,6.2,NNE,4.6,-,N/A,,Mostly Cloudy,20,2012-11-29 18:50:00
7:20 PM,39.2,37.4,93,29.86,6.2,NNE,3.5,-,N/A,,Mostly Cloudy,30,2012-11-29 19:20:00
7:50 PM,41.0,39.2,93,29.86,6.2,Variable,2.3,-,N/A,,Mostly Cloudy,0,2012-11-29 19:50:00
8:20 PM,41.0,37.4,87,29.86,6.2,NNW,4.6,-,N/A,,Mostly Cloudy,330,2012-11-29 20:20:00
8:50 PM,42,38,80,29.86,19,North,4.6,,,,Mostly Cloudy,0,2012-11-29 20:50:00
8:50 PM,41.0,37.4,87,29.86,6.2,North,4.6,-,N/A,,Mostly Cloudy,360,2012-11-29 20:50:00
9:50 PM,41.0,39.2,93,29.86,6.2,Variable,1.2,-,N/A,,Mostly Cloudy,0,2012-11-29 21:50:00
10:50 PM,41.0,39.2,93,29.86,6.2,NNW,4.6,-,N/A,Rain,Light Rain,340,2012-11-29 22:50:00
11:50 PM,41,38,85,29.85,16,North,4.6,,,Rain,Light Rain,10,2012-11-29 23:50:00
11:50 PM,41.0,37.4,87,29.83,-9999.0,North,4.6,-,N/A,,Clear,10,2012-11-29 23:50:00